Погода в Мезитли

Турция     36°49′44″N   34°24′48″E
темп.,
°C
ветер,
м/с
пор.,
м/с
влажн.,
%
обл.,
%
осадки,
мм/ч
давл.,
гПа
погр.,
м
13 мая, чт
чт1300:00+19юз11710 0.0 101066
03:00+18ссв22680 0.0 101032
06:00+18ссв226774 0.0 101149
09:00+21вюв2160100 0.0 1012384
12:00+24ююв32580 0.0 1012697
15:00+24ю54540 0.0 1011635
18:00+23ююз44545 0.0 1011391
21:00+19юз23721 0.0 1013100
14 мая, пт
пт1400:00+18з01760 0.0 101372
03:00+18ссв22730 0.0 101337
06:00+17ссв22800 0.0 101452
09:00+21юв21610 0.0 1015468
12:00+23ю4356100 0.0 1014731
15:00+24ю43581 0.0 1013610
18:00+23ю33595 0.0 1013414
21:00+19юз12743 0.0 101396
15 мая, сб
сб1500:00+19с11750 0.0 101371
03:00+18ссв33800 0.0 101359
06:00+17ссв23800 0.0 101364
09:00+21в22650 0.0 1012412
12:00+24ююв32625 0.0 1012613
15:00+24ю54635 0.0 1011560
18:00+22ююз44640 0.0 1010385
21:00+19юз2280100 0.0 1010125
16 мая, вс
вс1600:00+18ссв11830 0.0 1010111
03:00+17ссв22870 0.0 100953
06:00+17св228827 0.0 100979
09:00+20в227572 0.1 1010661
12:00+22ююв216397 0.1 1010886
15:00+22ю436235 0.1 1008809
18:00+22ююз4365100 0.0 1007554
21:00+19юз1274100 0.3 1008128
17 мая, пн
пн1700:00+18сз1179100 0.0 100861
03:00+17ссз2281100 0.1 100857
06:00+17ссв22820 0.0 100872
09:00+21вюв21640 0.1 1009644
12:00+23ю43561 0.0 1009814
15:00+24ю55565 0.2 1008849
18:00+24ююз66530 0.1 1008477
21:00+19ю02700 0.1 1010123